Flag for Germany Weather past 2 weeks in Bad Nauheim, Hesse, Germany

Now
71 °F

Sunny.


Feels Like: 73 °F
Forecast: 59 / 80 °F
Wind: 3 mph from Northeast

Location: Giessen

Current Time: Jul 26, 2014 at 11:32:36 AM

Latest Report: Jul 26, 2014 at 11:00 AM


Visibility: N/A

Pressure: 29.90 "Hg

Humidity: 75%

Dew point: 62 °F

Location of Bad NauheimLocation

Historic Weather in Bad Nauheim — Graph

°F

Bad Nauheim temperature yesterday

Maximum temperature yesterday: 76 °F (at 7:00 PM)
Minimum temperature yesterday: 57 °F (at 5:00 AM)
Average temperature yesterday: 67 °F

Past Weeks' High & Low Weather Summary

 TemperatureHumidityPressure
High89 °F (Jul 19, 6:00 PM)99% (Jul 12, 5:00 AM)30.20 "Hg (Jul 12, 5:00 AM)
Low55 °F (Jul 12, 6:00 AM)31% (Jul 18, 7:00 PM)29.74 "Hg (Jul 13, 7:00 PM)
Average69 °F74%29.96 "Hg
* Reported Jul 11 10:00 AM — Jul 26 10:00 AM, Bad Nauheim, Weather by CustomWeather, © 2014

Note: Actual official high and low records may vary slightly from our data, if they occured in-between our weather recording intervals... More about our weather records

Advertising

Bad Nauheim weather history for previous 24 hours

 ConditionsComfort  
Time TempWeatherWind HumidityBarometerVisibility
10:00 AM
Jul 26
66 °FScattered clouds.2 mph82%29.92 "HgN/A
9:00 AM62 °FLow clouds.3 mph95%29.93 "HgN/A
8:00 AM60 °FLow clouds.5 mph97%29.92 "HgN/A
7:00 AM59 °FScattered clouds.2 mph98%29.91 "HgN/A
6:00 AM58 °FPassing clouds.1 mph97%29.91 "HgN/A
5:00 AM60 °FPassing clouds.1 mph97%29.90 "HgN/A
4:00 AM60 °FPassing clouds.1 mph95%29.91 "HgN/A
3:00 AM61 °FPassing clouds.2 mph93%29.91 "HgN/A
2:00 AM61 °FClear.1 mph93%29.91 "HgN/A
1:00 AM63 °FPassing clouds.2 mph87%29.91 "HgN/A
12:00 AM64 °FClear.2 mph85%29.90 "HgN/A
11:00 PM
Jul 25
66 °FPassing clouds.3 mph78%29.90 "HgN/A
10:00 PM68 °FPassing clouds.3 mph70%29.88 "HgN/A
9:00 PM71 °FPartly sunny.2 mph64%29.87 "HgN/A
8:00 PM75 °FOvercast.3 mph54%29.86 "HgN/A
7:00 PM76 °FOvercast.2 mph47%29.86 "HgN/A
6:00 PM75 °FPartly sunny.1 mph49%29.86 "HgN/A
5:00 PM76 °FSunny.3 mph50%29.87 "HgN/A
4:00 PM73 °FScattered clouds.5 mph53%29.89 "HgN/A
3:00 PM74 °FScattered clouds.2 mph58%29.90 "HgN/A
2:00 PM73 °FMild.2 mph64%29.91 "HgN/A
1:00 PM70 °FPartly sunny.3 mph62%29.93 "HgN/A
12:00 PM67 °FOvercast.2 mph68%29.94 "HgN/A
11:00 AM68 °FOvercast.2 mph72%29.94 "HgN/A
Weather by CustomWeather, © 2014

See weather overviewHow to use our weather pages